Van, Turkey

12:17 AM +03 on October 19, 2017 (GMT +0300)
Van

Weather History for LTCI - November, 2012

Change the Weather History Date:

Monday, November 5, 2012

  Actual Average Record
Temperature  
Mean Temperature 48 °F -  
Max Temperature 59 °F 48 °F 62 °F (2006)
Min Temperature 37 °F 31 °F 18 °F (2014)
Degree Days  
Heating Degree Days 17    
Moisture  
Dew Point 41 °F    
Average Humidity 78    
Maximum Humidity 100    
Minimum Humidity 41    
Precipitation  
Precipitation 0.00 in 0.05 in - ()
Sea Level Pressure  
Sea Level Pressure 30.18 in    
Wind  
Wind Speed 3 mph ()    
Max Wind Speed 9 mph    
Max Gust Speed -    
Visibility 6.2 miles    
Events      
Averages and records for this station are not official NWS values.
T = Trace of Precipitation, MM = Missing Value Source: Averaged Metar Reports

Daily Weather History Graph

Daily Weather History Graph

Search for Another Location

Airport or City:

Trip Planner

Search our weather history database for the weather conditions in past years. The results will help you decide how hot, cold, wet, or windy it might be!

Date:

Astronomy

Nov. 05, 2012 Rise Set
Actual Time 5:37 AM EET 4:02 PM EET
Civil Twilight 5:09 AM EET 4:30 PM EET
Nautical Twilight 4:38 AM EET 5:01 PM EET
Astronomical Twilight 4:07 AM EET 5:32 PM EET
Moon 9:17 PM EET (11/5) 10:43 AM EET (11/5)
Length of Visible Light 11h 20m
Length of Day
10h 24m
Waning Gibbous, 66% of the Moon is Illuminated
Nov 5
Waning Gibbous
Nov 7
Last Quarter
Nov 14
New
Nov 20
First Quarter
Nov 28
Full

Hourly Weather History & Observations

Time (EET) Temp. Windchill Dew Point Humidity Pressure Visibility Wind Dir Wind Speed Gust Speed Precip Events Conditions
12:50 AM 41.0 °F - 41.0 °F 100% 30.21 in 6.2 mi Variable 2.3 mph - N/A   Scattered Clouds
1:50 AM 41.0 °F - 41.0 °F 100% 30.18 in 6.2 mi ESE 2.3 mph - N/A   Scattered Clouds
2:00 AM 41 °F - 41 °F 98%  in 7 mi ESE 2.3 mph - -   Partly Cloudy
2:50 AM 41.0 °F - 41.0 °F 100% 30.18 in 6.2 mi East 2.3 mph - N/A   Scattered Clouds
3:50 AM 41.0 °F 39.0 °F 39.2 °F 93% 30.21 in 6.2 mi East 3.5 mph - N/A   Scattered Clouds
4:50 AM 39.2 °F - 37.4 °F 93% 30.21 in 6.2 mi South 1.2 mph - N/A   Scattered Clouds
5:50 AM 39.2 °F 35.0 °F 39.2 °F 100% 30.21 in 6.2 mi ENE 5.8 mph - N/A   Partly Cloudy
6:50 AM 46.4 °F - 44.6 °F 93% 30.21 in 6.2 mi Variable 2.3 mph - N/A   Partly Cloudy
7:50 AM 53.6 °F - 42.8 °F 67% 30.21 in 6.2 mi Variable 1.2 mph - N/A   Partly Cloudy
8:00 AM 54 °F - 42 °F 55%  in 7 mi North 1.2 mph - -   Scattered Clouds
8:50 AM 55.4 °F - 44.6 °F 67% 30.21 in 6.2 mi NW 5.8 mph - N/A   Partly Cloudy
9:50 AM 57.2 °F - 44.6 °F 63% 30.21 in 6.2 mi WNW 5.8 mph - N/A   Partly Cloudy
10:50 AM 57.2 °F - 44.6 °F 63% 30.18 in 6.2 mi NW 8.1 mph - N/A   Partly Cloudy
11:50 AM 59.0 °F - 42.8 °F 55% 30.18 in 6.2 mi NW 6.9 mph - N/A   Partly Cloudy
12:50 PM 59.0 °F - 39.2 °F 48% 30.15 in 6.2 mi WNW 6.9 mph - N/A   Partly Cloudy
1:50 PM 59.0 °F - 42.8 °F 55% 30.15 in 6.2 mi WNW 8.1 mph - N/A   Partly Cloudy
2:00 PM 59 °F - 41 °F 41%  in 6 mi WNW 8.1 mph - -   Scattered Clouds
2:50 PM 57.2 °F - 39.2 °F 51% 30.15 in 6.2 mi NW 9.2 mph - N/A   Partly Cloudy
3:50 PM 55.4 °F - 41.0 °F 58% 30.15 in 6.2 mi WNW 5.8 mph - N/A   Partly Cloudy
4:50 PM 50.0 °F - 42.8 °F 76% 30.18 in 6.2 mi NNW 4.6 mph - N/A   Partly Cloudy
5:50 PM 46.4 °F 45.2 °F 42.8 °F 87% 30.18 in 6.2 mi East 3.5 mph - N/A   Partly Cloudy
6:50 PM 46.4 °F - 42.8 °F 87% 30.18 in 6.2 mi Calm Calm - N/A   Partly Cloudy
7:50 PM 44.6 °F 43.1 °F 41.0 °F 87% 30.18 in 6.2 mi ESE 3.5 mph - N/A   Partly Cloudy
8:00 PM 44 °F - 42 °F 89%  in 6 mi ESE 3.5 mph - -   Scattered Clouds
8:50 PM 41.0 °F - 39.2 °F 93% 30.18 in 6.2 mi ESE 1.2 mph - N/A   Partly Cloudy
9:50 PM 41.0 °F - 39.2 °F 93% 30.18 in 6.2 mi Variable 2.3 mph - N/A   Partly Cloudy
10:50 PM 41.0 °F - 39.2 °F 93% 30.18 in 6.2 mi East 2.3 mph - N/A   Partly Cloudy
11:50 PM 39.2 °F 37.0 °F 37.4 °F 93% 30.18 in 6.2 mi ENE 3.5 mph - N/A   Partly Cloudy